DW8397 Weather Reports


time (UTC)temp
F
wind
direction
speed
knots
gust
knots
rain 1hr
in
rain 24hr
in
rain mn
in
humidity
%
barometer
mb
20260906084555 54 165 0.0 0.0 0.00 0.06 0.04 88 1012.8
20260906083054 54 165 0.0 0.0 0.00 0.06 0.04 88 1012.7
20260906081553 54 165 0.0 0.0 0.00 0.06 0.04 88 1012.6
20260906080100 54 165 0.0 0.0 0.00 0.06 0.04 87 1012.8
20260906074551 54 165 0.0 0.0 0.00 0.06 0.04 88 1012.8
20260906073053 54 165 0.0 0.0 0.00 0.06 0.04 88 1012.5
20260906071553 54 165 0.0 0.0 0.01 0.06 0.04 88 1012.6
20260906070054 54 165 0.0 0.0 0.01 0.06 0.04 88 1012.5
20260906064551 55 165 0.0 0.0 0.01 0.06 0.04 88 1012.5
20260906063046 55 165 0.0 0.0 0.02 0.06 0.04 88 1012.5
20260906061545 55 165 0.0 0.0 0.01 0.05 0.03 88 1012.5
20260906060044 55 165 0.0 0.0 0.02 0.05 0.03 88 1012.6
20260906054557 56 165 0.0 0.0 0.03 0.05 0.03 88 1012.7
20260906053042 56 165 0.0 0.0 0.02 0.04 0.02 89 1012.7
20260906051602 56 165 0.0 0.0 0.02 0.04 0.02 89 1012.7
20260906050044 56 165 0.0 0.0 0.00 0.02 0.00 89 1012.8
20260906044548 56 165 0.0 0.0 0.00 0.02 0.00 89 1012.8
20260906043038 56 165 0.0 0.0 0.00 0.02 0.00 89 1012.8
20260906041537 56 165 0.0 0.0 0.00 0.02 0.00 89 1012.7
20260906034533 57 196 0.0 0.0 0.01 0.02 0.02 89 1012.8
20260906033044 57 196 0.0 0.0 0.02 0.02 0.02 89 1012.7
20260906031530 58 191 0.0 0.0 0.02 0.02 0.02 89 1012.6
20260906030029 58 138 0.0 0.0 0.01 0.01 0.01 89 1012.3
20260906024527 59 199 0.0 7.8 0.01 0.01 0.01 88 1012.0
20260906023026 60 143 0.0 8.7 0.00 0.00 0.00 88 1012.2
20260906021526 61 65 1.7 8.7 0.00 0.00 0.00 87 1012.0
20260906020025 61 334 0.0 5.2 0.00 0.00 0.00 87 1011.8
20260906014528 62 30 1.7 7.8 0.00 0.00 0.00 87 1011.7
20260906013028 62 26 1.7 8.7 0.00 0.00 0.00 87 1011.8
20260906011524 62 65 0.0 0.9 0.00 0.00 0.00 88 1011.9
20260906010023 62 355 0.0 0.0 0.00 0.00 0.00 88 1011.8
20260906004521 63 355 0.0 0.0 0.00 0.00 0.00 87 1011.7
20260906003020 63 13 0.0 0.0 0.00 0.00 0.00 87 1011.4
20260906001518 63 329 0.0 5.2 0.00 0.00 0.00 87 1011.3
20260906000019 63 20 0.0 6.1 0.00 0.00 0.00 87 1011.3
20260905234518 63 5 0.9 6.1 0.00 0.00 0.00 86 1011.1
20260905233014 64 333 0.0 0.0 0.00 0.00 0.00 85 1010.9
20260905231518 64 314 0.0 0.0 0.00 0.00 0.00 85 1010.7
20260905230012 64 16 1.7 9.6 0.00 0.00 0.00 84 1010.7
20260905224523 65 323 0.9 6.1 0.00 0.00 0.00 83 1010.5
20260905223010 65 323 0.0 5.2 0.00 0.00 0.00 82 1010.4
20260905221509 66 311 0.0 7.8 0.00 0.00 0.00 81 1010.3
20260905220009 66 61 0.9 5.2 0.00 0.00 0.00 81 1010.4
20260905214508 67 5 3.5 11.3 0.00 0.00 0.00 79 1010.3
20260905213006 67 360 2.6 8.7 0.00 0.00 0.00 79 1010.2
20260905211513 67 21 0.0 8.7 0.00 0.00 0.00 80 1010.0
20260905210007 67 32 5.2 9.6 0.00 0.00 0.00 78 1010.0
20260905204505 67 340 4.3 11.3 0.00 0.00 0.00 78 1010.0
20260905203004 67 338 1.7 6.1 0.00 0.00 0.00 80 1009.7
20260905201504 67 304 1.7 9.6 0.00 0.00 0.00 79 1009.7
20260905200009 68 309 3.5 9.6 0.00 0.00 0.00 78 1009.5
20260905194502 68 306 3.5 8.7 0.00 0.00 0.00 79 1009.7
20260905193002 68 24 0.9 7.0 0.00 0.00 0.00 78 1009.7
20260905191502 69 30 1.7 5.2 0.00 0.00 0.00 78 1009.7
20260905190104 68 330 1.7 7.8 0.00 0.00 0.00 79 1009.7
20260905184600 67 266 0.0 7.0 0.00 0.00 0.00 80 1009.6
20260905183056 68 300 0.9 11.3 0.00 0.00 0.00 78 1009.6
20260905181556 67 321 0.0 7.8 0.00 0.00 0.00 80 1009.5
20260905180103 67 287 2.6 7.0 0.00 0.00 0.00 81 1009.6
20260905174555 67 313 1.7 7.8 0.00 0.00 0.00 80 1009.7
20260905173111 68 350 2.6 7.0 0.00 0.00 0.00 78 1009.7
20260905171554 68 25 0.0 5.2 0.00 0.00 0.00 80 1009.6
20260905170108 66 314 0.9 6.1 0.00 0.00 0.00 79 1009.6
20260905164600 67 355 1.7 7.8 0.00 0.00 0.00 78 1009.6
20260905163050 67 5 3.5 7.8 0.00 0.00 0.00 79 1009.6
20260905161604 67 325 1.7 7.0 0.00 0.00 0.00 80 1009.6
20260905160049 67 355 0.9 9.6 0.00 0.00 0.00 79 1009.8
20260905154548 67 317 2.6 8.7 0.00 0.00 0.00 81 1009.8
20260905153045 66 333 0.0 7.8 0.00 0.00 0.00 80 1009.8
20260905151545 66 350 0.0 3.5 0.00 0.00 0.00 79 1009.8
20260905150044 66 317 0.0 0.0 0.00 0.00 0.00 79 1009.7
20260905144542 66 340 0.0 0.0 0.00 0.00 0.00 80 1009.7
20260905143040 65 24 0.0 0.0 0.00 0.00 0.00 82 1009.7
20260905141537 64 318 0.0 0.9 0.00 0.00 0.00 83 1009.9
20260905140037 65 38 0.0 7.8 0.00 0.00 0.00 85 1009.9
20260905134535 64 306 0.0 7.0 0.00 0.00 0.00 86 1009.9
20260905133036 64 334 0.0 4.3 0.00 0.00 0.00 86 1009.9
20260905131529 63 349 0.9 6.1 0.00 0.00 0.00 87 1009.8
20260905130029 63 298 0.0 6.1 0.00 0.00 0.00 87 1009.7
20260905124524 62 355 0.0 0.0 0.00 0.00 0.00 88 1009.6
20260905123023 61 321 0.0 0.0 0.00 0.00 0.00 88 1009.5
20260905121523 59 360 0.0 0.0 0.00 0.00 0.00 88 1009.5
20260905120020 59 26 0.0 0.0 0.00 0.00 0.00 88 1009.4
20260905114519 58 344 0.0 0.0 0.00 0.00 0.00 88 1009.2
20260905113018 58 355 0.0 0.0 0.00 0.00 0.00 88 1009.2
20260905111520 58 317 0.0 0.0 0.00 0.00 0.00 88 1009.0
20260905110017 58 292 0.0 0.0 0.00 0.00 0.00 88 1009.0
20260905104514 58 264 0.0 0.0 0.00 0.01 0.00 88 1008.9
20260905103015 57 326 0.0 0.0 0.00 0.01 0.00 89 1008.8
20260905101512 57 334 0.0 0.0 0.00 0.01 0.00 89 1008.8
20260905100017 58 271 0.0 0.0 0.00 0.01 0.00 88 1008.8
20260905094509 58 336 0.0 0.0 0.00 0.01 0.00 89 1008.6
20260905093008 58 360 0.0 9.6 0.00 0.01 0.00 89 1008.5
20260905091511 58 309 0.0 0.0 0.00 0.01 0.00 88 1008.5
20260905090010 58 311 0.0 9.6 0.00 0.01 0.00 88 1008.4